El Paso, TX

8:32 PM MDT on May 22, 2017 (GMT -0600)
El Paso International

Weather History for KELP - September, 2013

Change the Weather History Date:

Wednesday, September 18, 2013

  Actual Average Record
Temperature  
Mean Temperature 78 °F 75 °F  
Max Temperature 87 °F 87 °F 98 °F (1973)
Min Temperature 68 °F 63 °F 45 °F (1968)
Degree Days  
Heating Degree Days 0 0  
Month to date heating degree days 0 0  
Since 1 July heating degree days 0 0  
Cooling Degree Days 13 10  
Month to date cooling degree days 238 222  
Year to date cooling degree days 2516 2151  
Growing Degree Days 28 (Base 50)    
Moisture  
Dew Point 59 °F    
Average Humidity 58    
Maximum Humidity 76    
Minimum Humidity 40    
Precipitation  
Precipitation 0.00 in 0.06 in 1.03 in (1995)
Month to date precipitation 3.31 1.00  
Year to date precipitation 8.61 7.32  
Snow  
Snow 0.00 in - - ()
Month to date snowfall 0.0  
Since 1 July snowfall T  
Since 1 September snowfall 0.0  
Snow Depth 0.00 in    
Sea Level Pressure  
Sea Level Pressure 29.77 in    
Wind  
Wind Speed 7 mph (SSE)    
Max Wind Speed 14 mph    
Max Gust Speed 20 mph    
Visibility 10 miles    
Events      
T = Trace of Precipitation, MM = Missing Value Source: NWS Daily Summary

Daily Weather History Graph

Daily Weather History Graph

Search for Another Location

Airport or City:

Trip Planner

Search our weather history database for the weather conditions in past years. The results will help you decide how hot, cold, wet, or windy it might be!

Date:

Astronomy

Sep. 18, 2013 Rise Set
Actual Time 6:51 AM MDT 7:07 PM MDT
Civil Twilight 6:27 AM MDT 7:31 PM MDT
Nautical Twilight 5:58 AM MDT 7:59 PM MDT
Astronomical Twilight 5:29 AM MDT 8:28 PM MDT
Moon 6:33 PM MDT (9/18) 5:57 AM MDT (9/18)
Length of Visible Light 13h 04m
Length of Day
12h 15m
Waxing Gibbous, 99% of the Moon is Illuminated
Sep 18
Waxing Gibbous
Sep 19
Full
Sep 26
Last Quarter
Oct 4
New
Oct 11
First Quarter

Hourly Weather History & Observations

Time (MDT) Temp. Heat Index Dew Point Humidity Pressure Visibility Wind Dir Wind Speed Gust Speed Precip Events Conditions
12:51 AM 73.0 °F - 57.9 °F 59% 29.83 in 10.0 mi SE 8.1 mph - N/A   Partly Cloudy
1:51 AM 72.0 °F - 57.9 °F 61% 29.83 in 10.0 mi SE 8.1 mph - N/A   Partly Cloudy
2:51 AM 71.1 °F - 57.9 °F 63% 29.81 in 10.0 mi SE 8.1 mph - N/A   Partly Cloudy
3:51 AM 70.0 °F - 59.0 °F 68% 29.80 in 10.0 mi SE 4.6 mph - N/A   Partly Cloudy
4:51 AM 69.1 °F - 60.1 °F 73% 29.80 in 10.0 mi Calm Calm - N/A   Partly Cloudy
5:51 AM 68.0 °F - 60.1 °F 76% 29.81 in 10.0 mi Calm Calm - N/A   Partly Cloudy
6:51 AM 69.1 °F - 60.1 °F 73% 29.83 in 10.0 mi Calm Calm - N/A   Scattered Clouds
7:51 AM 70.0 °F - 60.1 °F 71% 29.84 in 10.0 mi Calm Calm - N/A   Scattered Clouds
8:51 AM 72.0 °F - 60.1 °F 66% 29.85 in 10.0 mi SSE 8.1 mph - N/A   Scattered Clouds
9:51 AM 73.9 °F - 60.1 °F 62% 29.85 in 10.0 mi ESE 6.9 mph - N/A   Scattered Clouds
10:51 AM 75.9 °F - 60.1 °F 58% 29.84 in 10.0 mi SSE 5.8 mph - N/A   Partly Cloudy
11:51 AM 79.0 °F - 60.1 °F 52% 29.81 in 10.0 mi SE 10.4 mph - N/A   Partly Cloudy
12:51 PM 81.0 °F 81.7 °F 61.0 °F 50% 29.79 in 10.0 mi South 10.4 mph - N/A   Partly Cloudy
1:51 PM 82.0 °F 82.4 °F 60.1 °F 47% 29.76 in 10.0 mi SSE 10.4 mph - N/A   Partly Cloudy
2:51 PM 84.9 °F 84.8 °F 60.1 °F 43% 29.73 in 10.0 mi SSE 11.5 mph 19.6 mph N/A   Partly Cloudy
3:51 PM 84.9 °F 84.8 °F 60.1 °F 43% 29.70 in 10.0 mi Variable 6.9 mph - N/A   Scattered Clouds
4:51 PM 84.9 °F 84.2 °F 57.9 °F 40% 29.69 in 10.0 mi South 8.1 mph - N/A   Scattered Clouds
5:51 PM 84.9 °F 83.9 °F 57.0 °F 38% 29.68 in 10.0 mi South 8.1 mph - N/A   Partly Cloudy
6:51 PM 82.9 °F 82.4 °F 57.0 °F 41% 29.68 in 10.0 mi SSE 9.2 mph - N/A   Partly Cloudy
7:51 PM 81.0 °F 81.0 °F 57.0 °F 44% 29.70 in 10.0 mi SSE 6.9 mph - N/A   Partly Cloudy
8:51 PM 81.0 °F 81.0 °F 57.0 °F 44% 29.72 in 10.0 mi SE 11.5 mph - N/A   Partly Cloudy
9:51 PM 78.1 °F - 59.0 °F 52% 29.74 in 10.0 mi SSE 9.2 mph - N/A   Scattered Clouds
10:51 PM 75.9 °F - 60.1 °F 58% 29.74 in 10.0 mi SSE 8.1 mph - N/A   Partly Cloudy
11:51 PM 75.0 °F - 60.1 °F 60% 29.73 in 10.0 mi SSE 8.1 mph - N/A   Partly Cloudy